OneWeb SL0096

operational
NORAD ID: 45439 Int'l Des: 2020-020 Owner: ONEWEB Country: UK Constellation: oneweb
LEOCIRCULARPOLARONEWEB_TYPE

OneWeb SL0096について

説明を読み込み中...

リアルタイム位置

3D地球を読み込み中...

次回通過

高度履歴

Altitude vs Time

uPlot chart will show altitude changes over time

軌道要素

1 45439U 20020R 26035.30044961 -.00000164 00000-0 -49758-3 0 9991
2 45439 87.8829 47.4954 0001847 88.0272 272.1067 13.11418613285244
Epoch: Feb 4, 2026 • Age: 6 hours

現在のステータス

高度 1219.9 km
速度 7.25 km/s
衛星直下点 23.92°N, 81.31°E
打ち上げ日 Mar 21, 2020
運用期間 5.8 years
タイプ internet

技術仕様

分類 Payload
質量 148.00 kg
乾燥質量 140.00 kg
総質量 148.00 kg
長さ 1.30 m
直径 1.00 m
スパン 5.00 m
形状 Trapezoid+2 pan
製造者 ONEWUS
バスタイプ ARROW
フェーズステータス In Orbit
所有者/国 ONEWEB/UK

大規模コンステレーション

Loading constellations...